Погода в Берсеневке

Россия / Республика Мордовия     54°12′28″N   45°05′21″E
темп.,
°C
ветер,
м/с
пор.,
м/с
влажн.,
%
обл.,
%
осадки,
мм/ч
давл.,
гПа
погр.,
м
13 апреля, вт
вт1300:00+8вюв389153 0.0 1033127
03:00+7юв338796 0.0 103326
06:00+7юв338592 0.0 103332
09:00+13ююв596334 0.0 1032320
12:00+17ююв57405 0.0 1031805
15:00+19ююв56319 0.0 10301243
18:00+15ююв344727 0.0 102947
21:00+11ююв3358100 0.0 103040
14 апреля, ср
ср1400:00+9ююв336252 0.0 102937
03:00+7юв326560 0.0 102929
06:00+6юв22669 0.0 102825
09:00+12юв47535 0.0 1027310
12:00+17юв57400 0.0 1025941
15:00+19юв57380 0.0 10231486
18:00+16юв36560 0.0 1022121
21:00+12ююв22725 0.0 102223
15 апреля, чт
чт1500:00+10ююв22815 0.0 102221
03:00+8юв22845 0.0 102115
06:00+8юв22848 0.0 102117
09:00+12ююв2465100 0.0 1020261
12:00+17юв234597 0.0 1019855
15:00+18вюв223612 0.0 10181229
18:00+17св334744 0.0 101729
21:00
16 апреля, пт
пт1600:00+11всв336950 0.0 101726
03:00+9всв227355 0.0 101720
06:00+9всв337967 0.0 101748
09:00+14всв466373 0.0 1017358
12:00+17всв455230 0.0 10171060
15:00+18св665221 0.9 10171432
18:00+14св797022 0.4 1018717
21:00+10св611814 0.1 1020535
17 апреля, сб
сб1700:00+8всв6118376 0.1 1021507
03:00+7св5978100 0.0 1022566
06:00+5св510777 0.0 1024422
09:00+8св710484 0.0 1024949
12:00+10св79370 0.0 10251478
15:00+11св79365 0.0 10251695
18:00+9св79423 0.0 10271311
21:00+5всв6124497 0.0 1029675